Weather in Pustotino

Russia / Ryazan Oblast     54°03′39″N   40°18′46″E
temp.,
°C
wind,
m/s
gust,
m/s
humid.,
%
clouds,
%
prec.,
mm/h
press.,
hPa
HPBL,
m
25 february, thu
thu2500:00−15ssw5994100 0.4 1032377
03:00−14ssw51094100 0.6 1029388
06:00−12ssw61194100 0.8 1025369
09:00−9ssw71295100 2.3 1022403
12:000sw71497100 2.5 1017574
15:00+2w614100100 3.7 1014449
18:00+2wnw51299100 0.0 1014401
21:00+1wnw4999100 0.0 1015244
26 february, fri
fri2600:00+1w4999100 0.0 1015267
03:00+2w41099100 0.0 1015264
06:00+1w51199100 0.2 1013303
09:00+2w513100100 0.6 1012391
12:00+3wsw513100100 0.0 1010330
15:00+2wsw71599100 0.1 1008446
18:00+2wsw71799100 0.3 1005568
21:00+2w61696100 0.3 1006632
27 february, sat
sat2700:00+2w61493100 0.1 1004636
03:00+1w61489100 0.1 1004762
06:00+1w6139195 0.0 1003663
09:00+1w7139496 0.1 1003570
12:00+1w6129799 0.0 1002716
15:00+1wnw7139899 0.1 1003805
18:00−1nnw6119797 0.6 1004704
21:00−5n4109298 0.7 1008435
28 february, sun
sun2800:00−8n4109396 0.0 1009360
03:00−10n379394 0.0 1012191
06:00−8nnw3894100 0.1 1013548
09:00−9nnw489389 0.1 1015438
12:00−7nnw479095 0.0 1016513
15:00−5nnw578897 0.1 1017693
18:00−6nnw3994100 0.1 1018387
21:00−7n379699 0.1 1021191
1 march, mon
mon100:00−8nnw369689 0.0 1022150
03:00−9nnw369688 0.1 1024138
06:00−10nnw239767 0.0 102538
09:00−8nnw369673 0.1 1027244
12:00−5nw359091 0.0 1028475
15:00−3wnw358894 0.1 1027603
18:00−6wsw369395 0.0 1027114
21:00−6wsw489393 0.0 1026189